Flag for Canada Weather past 2 weeks in Eureka, Nunavut, Canada

Now
48 °F

Partly sunny.


Feels Like: 45 °F
Forecast: 44 / 49 °F
Wind: 8 mph from South

Location: Eureka

Current Time: Jul 28, 2015 at 3:11:04 PM

Latest Report: Jul 28, 2015 at 2:00 PM


Visibility: 15 mi

Pressure: 29.93 "Hg

Humidity: 76%

Dew point: 41 °F

Location of EurekaLocation

Historic Weather in Eureka — Graph

°F

Eureka temperature yesterday

Maximum temperature yesterday: 48 °F (at 1:00 AM)
Minimum temperature yesterday: 43 °F (at 10:00 AM)
Average temperature yesterday: 45 °F

Past Weeks' High & Low Weather Summary

 TemperatureHumidityPressure
High64 °F (Jul 17, 5:00 PM)93% (Jul 28, 10:00 AM)30.27 "Hg (Jul 28, 10:00 AM)
Low41 °F (Jul 14, 3:00 AM)30% (Jul 17, 5:00 PM)29.79 "Hg (Jul 27, 10:00 AM)
Average49 °F61%30.06 "Hg
* Reported Jul 13 1:00 PM — Jul 28 1:00 PM, Eureka, Weather by CustomWeather, © 2015

Note: Actual official high and low records may vary slightly from our data, if they occured in-between our weather recording intervals... More about our weather records

Advertising

Eureka weather history for previous 24 hours

 ConditionsComfort  
Time TempWeatherWind HumidityBarometerVisibility
1:00 PM
Tue, Jul 28
46 °FMostly cloudy.7 mph76%29.93 "Hg15 mi
12:00 PM43 °FMostly cloudy.6 mph81%29.93 "Hg15 mi
11:00 AM41 °FOvercast.6 mph87%29.91 "Hg15 mi
10:00 AM41 °FLight rain. Overcast.2 mph93%29.90 "Hg15 mi
9:00 AM41 °FLight rain. Overcast.6 mph87%29.90 "Hg15 mi
8:00 AM41 °FPartly sunny.6 mph87%29.89 "Hg15 mi
7:00 AM41 °FPartly sunny.6 mph87%29.88 "Hg15 mi
6:00 AM41 °FPartly sunny.5 mph87%29.87 "Hg15 mi
5:00 AM45 °FPartly sunny.5 mph81%29.87 "Hg15 mi
4:00 AM46 °FPartly sunny.3 mph71%29.85 "Hg15 mi
3:00 AM46 °FPartly sunny.6 mph71%29.85 "Hg15 mi
2:00 AM46 °FPartly sunny.2 mph71%29.84 "Hg15 mi
1:00 AM48 °FPartly sunny.5 mph66%29.83 "Hg15 mi
10:00 PM
Mon, Jul 27
45 °FPartly sunny.3 mph76%29.83 "Hg15 mi
9:00 PM45 °FPartly sunny.6 mph76%29.82 "Hg15 mi
8:00 PM45 °FPartly sunny.10 mph71%29.81 "Hg15 mi
7:00 PM45 °FPartly sunny.10 mph76%29.81 "Hg15 mi
6:00 PM45 °FBroken clouds.7 mph76%29.80 "Hg15 mi
5:00 PM45 °FPartly sunny.9 mph76%29.79 "Hg15 mi
4:00 PM45 °FPartly sunny.12 mph76%29.79 "Hg15 mi
3:00 PM43 °FMostly cloudy.12 mph81%29.79 "Hg15 mi
Weather by CustomWeather, © 2015

See weather overviewHow to use our weather pages